Year,Month,Day,Hour,Minute,Value (Times are PST for temperature in C)
2009,09,22,00,00,13.10
2009,09,22,00,01,13.20
2009,09,22,00,02,13.20
2009,09,22,00,03,13.30
2009,09,22,00,04,13.30
2009,09,22,00,05,13.30
2009,09,22,00,06,13.40
2009,09,22,00,07,13.50
2009,09,22,00,08,13.50
2009,09,22,00,09,13.50
2009,09,22,00,10,13.50
2009,09,22,00,11,13.50
2009,09,22,00,12,13.50
2009,09,22,00,13,13.50
2009,09,22,00,14,13.50
2009,09,22,00,15,13.50
2009,09,22,00,16,13.50
2009,09,22,00,17,13.50
2009,09,22,00,18,13.50
2009,09,22,00,19,13.50
2009,09,22,00,20,13.50
2009,09,22,00,21,13.50
2009,09,22,00,22,13.50
2009,09,22,00,23,13.50
2009,09,22,00,24,13.40
2009,09,22,00,25,13.40
2009,09,22,00,26,13.40
2009,09,22,00,27,13.40
2009,09,22,00,28,13.30
2009,09,22,00,29,13.30
2009,09,22,00,30,13.30
2009,09,22,00,31,13.30
2009,09,22,00,32,13.30
2009,09,22,00,33,13.30
2009,09,22,00,34,13.30
2009,09,22,00,35,13.30
2009,09,22,00,36,13.30
2009,09,22,00,37,13.30
2009,09,22,00,38,13.20
2009,09,22,00,39,13.20
2009,09,22,00,40,13.20
2009,09,22,00,41,13.20
2009,09,22,00,42,13.10
2009,09,22,00,43,13.10
2009,09,22,00,44,13.10
2009,09,22,00,45,13.00
2009,09,22,00,46,13.00
2009,09,22,00,47,13.00
2009,09,22,00,48,12.90
2009,09,22,00,49,12.90
2009,09,22,00,50,12.90
2009,09,22,00,51,12.90
2009,09,22,00,52,12.80
2009,09,22,00,53,12.80
2009,09,22,00,54,12.80
2009,09,22,00,55,12.80
2009,09,22,00,56,12.80
2009,09,22,00,57,12.80
2009,09,22,00,58,12.80
2009,09,22,00,59,12.70
2009,09,22,01,00,12.70
2009,09,22,01,01,12.70
2009,09,22,01,02,12.70
2009,09,22,01,03,12.70
2009,09,22,01,04,12.60
2009,09,22,01,05,12.60
2009,09,22,01,06,12.60
2009,09,22,01,07,12.60
2009,09,22,01,08,12.60
2009,09,22,01,09,12.60
2009,09,22,01,10,12.50
2009,09,22,01,11,12.50
2009,09,22,01,12,12.50
2009,09,22,01,13,12.50
2009,09,22,01,14,12.50
2009,09,22,01,15,12.50
2009,09,22,01,16,12.50
2009,09,22,01,17,12.50
2009,09,22,01,18,12.50
2009,09,22,01,19,12.50
2009,09,22,01,20,12.50
2009,09,22,01,21,12.50
2009,09,22,01,22,12.50
2009,09,22,01,23,12.40
2009,09,22,01,24,12.40
2009,09,22,01,25,12.40
2009,09,22,01,26,12.40
2009,09,22,01,27,12.40
2009,09,22,01,28,12.40
2009,09,22,01,29,12.30
2009,09,22,01,30,12.30
2009,09,22,01,31,12.30
2009,09,22,01,32,12.30
2009,09,22,01,33,12.30
2009,09,22,01,34,12.30
2009,09,22,01,35,12.30
2009,09,22,01,36,12.30
2009,09,22,01,37,12.30
2009,09,22,01,38,12.30
2009,09,22,01,39,12.30
2009,09,22,01,40,12.30
2009,09,22,01,41,12.30
2009,09,22,01,42,12.30
2009,09,22,01,43,12.30
2009,09,22,01,44,12.30
2009,09,22,01,45,12.30
2009,09,22,01,46,12.20
2009,09,22,01,47,12.20
2009,09,22,01,48,12.20
2009,09,22,01,49,12.20
2009,09,22,01,50,12.20
2009,09,22,01,51,12.10
2009,09,22,01,52,12.10
2009,09,22,01,53,12.10
2009,09,22,01,54,12.10
2009,09,22,01,55,12.10
2009,09,22,01,56,12.00
2009,09,22,01,57,12.00
2009,09,22,01,58,12.00
2009,09,22,01,59,12.00
2009,09,22,02,00,12.00
2009,09,22,02,01,12.00
2009,09,22,02,02,12.00
2009,09,22,02,03,12.00
2009,09,22,02,04,12.00
2009,09,22,02,05,12.00
2009,09,22,02,06,12.00
2009,09,22,02,07,12.00
2009,09,22,02,08,12.00
2009,09,22,02,09,12.00
2009,09,22,02,10,12.00
2009,09,22,02,11,12.00
2009,09,22,02,12,12.00
2009,09,22,02,13,12.00
2009,09,22,02,14,12.00
2009,09,22,02,15,12.00
2009,09,22,02,16,12.00
2009,09,22,02,17,12.00
2009,09,22,02,18,11.90
2009,09,22,02,19,11.90
2009,09,22,02,20,11.90
2009,09,22,02,21,11.90
2009,09,22,02,22,11.90
2009,09,22,02,23,11.90
2009,09,22,02,24,11.80
2009,09,22,02,25,11.80
2009,09,22,02,26,11.80
2009,09,22,02,27,11.80
2009,09,22,02,28,11.80
2009,09,22,02,29,11.80
2009,09,22,02,30,11.80
2009,09,22,02,31,11.80
2009,09,22,02,32,11.80
2009,09,22,02,33,11.80
2009,09,22,02,34,11.80
2009,09,22,02,35,11.80
2009,09,22,02,36,11.80
2009,09,22,02,37,11.80
2009,09,22,02,38,11.80
2009,09,22,02,39,11.80
2009,09,22,02,40,11.80
2009,09,22,02,41,11.80
2009,09,22,02,42,11.80
2009,09,22,02,43,11.80
2009,09,22,02,44,11.80
2009,09,22,02,45,11.80
2009,09,22,02,46,11.80
2009,09,22,02,47,11.80
2009,09,22,02,48,11.80
2009,09,22,02,49,11.80
2009,09,22,02,50,11.90
2009,09,22,02,51,11.90
2009,09,22,02,52,11.90
2009,09,22,02,53,11.90
2009,09,22,02,54,11.90
2009,09,22,02,55,11.90
2009,09,22,02,56,11.80
2009,09,22,02,57,11.80
2009,09,22,02,58,11.80
2009,09,22,02,59,11.80
2009,09,22,03,00,11.80
2009,09,22,03,01,11.80
2009,09,22,03,02,11.80
2009,09,22,03,03,11.80
2009,09,22,03,04,11.80
2009,09,22,03,05,11.80
2009,09,22,03,06,11.80
2009,09,22,03,07,11.80
2009,09,22,03,08,11.80
2009,09,22,03,09,11.80
2009,09,22,03,10,11.80
2009,09,22,03,11,11.80
2009,09,22,03,12,11.70
2009,09,22,03,13,11.70
2009,09,22,03,14,11.70
2009,09,22,03,15,11.70
2009,09,22,03,16,11.70
2009,09,22,03,17,11.70
2009,09,22,03,18,11.60
2009,09,22,03,19,11.60
2009,09,22,03,20,11.60
2009,09,22,03,21,11.60
2009,09,22,03,22,11.60
2009,09,22,03,23,11.60
2009,09,22,03,24,11.60
2009,09,22,03,25,11.60
2009,09,22,03,26,11.60
2009,09,22,03,27,11.60
2009,09,22,03,28,11.60
2009,09,22,03,29,11.60
2009,09,22,03,30,11.60
2009,09,22,03,31,11.60
2009,09,22,03,32,11.60
2009,09,22,03,33,11.60
2009,09,22,03,34,11.60
2009,09,22,03,35,11.60
2009,09,22,03,36,11.60
2009,09,22,03,37,11.60
2009,09,22,03,38,11.60
2009,09,22,03,39,11.60
2009,09,22,03,40,11.60
2009,09,22,03,41,11.60
2009,09,22,03,42,11.50
2009,09,22,03,43,11.40
2009,09,22,03,44,11.40
2009,09,22,03,45,11.40
2009,09,22,03,46,11.40
2009,09,22,03,47,11.40
2009,09,22,03,48,11.40
2009,09,22,03,49,11.40
2009,09,22,03,50,11.40
2009,09,22,03,51,11.50
2009,09,22,03,52,11.60
2009,09,22,03,53,11.60
2009,09,22,03,54,11.60
2009,09,22,03,55,11.60
2009,09,22,03,56,11.60
2009,09,22,03,57,11.60
2009,09,22,03,58,11.60
2009,09,22,03,59,11.70
2009,09,22,04,00,11.70
2009,09,22,04,01,11.70
2009,09,22,04,02,11.70
2009,09,22,04,03,11.70
2009,09,22,04,04,11.70
2009,09,22,04,05,11.70
2009,09,22,04,06,11.70
2009,09,22,04,07,11.80
2009,09,22,04,08,11.80
2009,09,22,04,09,11.80
2009,09,22,04,10,11.80
2009,09,22,04,11,11.80
2009,09,22,04,12,11.80
2009,09,22,04,13,11.80
2009,09,22,04,14,11.80
2009,09,22,04,15,11.80
2009,09,22,04,16,11.80
2009,09,22,04,17,11.80
2009,09,22,04,18,11.80
2009,09,22,04,19,11.80
2009,09,22,04,20,11.80
2009,09,22,04,21,11.80
2009,09,22,04,22,11.80
2009,09,22,04,23,11.80
2009,09,22,04,24,11.80
2009,09,22,04,25,11.80
2009,09,22,04,26,11.80
2009,09,22,04,27,11.80
2009,09,22,04,28,11.80
2009,09,22,04,29,11.80
2009,09,22,04,30,11.80
2009,09,22,04,31,11.80
2009,09,22,04,32,11.80
2009,09,22,04,33,11.80
2009,09,22,04,34,11.80
2009,09,22,04,35,11.80
2009,09,22,04,36,11.80
2009,09,22,04,37,11.80
2009,09,22,04,38,11.80
2009,09,22,04,39,11.80
2009,09,22,04,40,11.80
2009,09,22,04,41,11.80
2009,09,22,04,42,11.80
2009,09,22,04,43,11.80
2009,09,22,04,44,11.80
2009,09,22,04,45,11.80
2009,09,22,04,46,11.80
2009,09,22,04,47,11.80
2009,09,22,04,48,11.80
2009,09,22,04,49,11.80
2009,09,22,04,50,11.80
2009,09,22,04,51,11.80
2009,09,22,04,52,11.80
2009,09,22,04,53,11.80
2009,09,22,04,54,11.80
2009,09,22,04,55,11.80
2009,09,22,04,56,11.80
2009,09,22,04,57,11.80
2009,09,22,04,58,11.70
2009,09,22,04,59,11.70
2009,09,22,05,00,11.70
2009,09,22,05,01,11.70
2009,09,22,05,02,11.70
2009,09,22,05,03,11.60
2009,09,22,05,04,11.60
2009,09,22,05,05,11.60
2009,09,22,05,06,11.60
2009,09,22,05,07,11.60
2009,09,22,05,08,11.60
2009,09,22,05,09,11.60
2009,09,22,05,10,11.60
2009,09,22,05,11,11.60
2009,09,22,05,12,11.40
2009,09,22,05,13,11.40
2009,09,22,05,14,11.40
2009,09,22,05,15,11.40
2009,09,22,05,16,11.40
2009,09,22,05,17,11.40
2009,09,22,05,18,11.40
2009,09,22,05,19,11.40
2009,09,22,05,20,11.40
2009,09,22,05,21,11.40
2009,09,22,05,22,11.40
2009,09,22,05,23,11.40
2009,09,22,05,24,11.40
2009,09,22,05,25,11.30
2009,09,22,05,26,11.30
2009,09,22,05,27,11.30
2009,09,22,05,28,11.30
2009,09,22,05,29,11.30
2009,09,22,05,30,11.30
2009,09,22,05,31,11.20
2009,09,22,05,32,11.20
2009,09,22,05,33,11.20
2009,09,22,05,34,11.20
2009,09,22,05,35,11.20
2009,09,22,05,36,11.20
2009,09,22,05,37,11.10
2009,09,22,05,38,11.10
2009,09,22,05,39,11.10
2009,09,22,05,40,11.10
2009,09,22,05,41,11.10
2009,09,22,05,42,11.10
2009,09,22,05,43,11.10
2009,09,22,05,44,11.10
2009,09,22,05,45,11.10
2009,09,22,05,46,11.10
2009,09,22,05,47,11.10
2009,09,22,05,48,11.10
2009,09,22,05,49,11.10
2009,09,22,05,50,11.10
2009,09,22,05,51,11.10
2009,09,22,05,52,11.10
2009,09,22,05,53,11.10
2009,09,22,05,54,11.10
2009,09,22,05,55,11.10
2009,09,22,05,56,11.10
2009,09,22,05,57,11.10
2009,09,22,05,58,11.10
2009,09,22,05,59,11.10
2009,09,22,06,00,11.10
2009,09,22,06,01,11.10
2009,09,22,06,02,11.10
2009,09,22,06,03,11.10
2009,09,22,06,04,11.10
2009,09,22,06,05,11.10
2009,09,22,06,06,11.10
2009,09,22,06,07,11.10
2009,09,22,06,08,11.10
2009,09,22,06,09,11.10
2009,09,22,06,10,11.10
2009,09,22,06,11,11.10
2009,09,22,06,12,11.10
2009,09,22,06,13,11.10
2009,09,22,06,14,11.10
2009,09,22,06,15,11.10
2009,09,22,06,16,11.10
2009,09,22,06,17,11.10
2009,09,22,06,18,11.10
2009,09,22,06,19,11.10
2009,09,22,06,20,11.10
2009,09,22,06,21,11.10
2009,09,22,06,22,11.10
2009,09,22,06,23,11.10
2009,09,22,06,24,11.10
2009,09,22,06,25,11.10
2009,09,22,06,26,11.10
2009,09,22,06,27,11.10
2009,09,22,06,28,11.10
2009,09,22,06,29,11.10
2009,09,22,06,30,11.10
2009,09,22,06,31,11.10
2009,09,22,06,32,11.10
2009,09,22,06,33,11.10
2009,09,22,06,34,11.10
2009,09,22,06,35,10.90
2009,09,22,06,36,10.90
2009,09,22,06,37,11.00
2009,09,22,06,38,11.10
2009,09,22,06,39,11.10
2009,09,22,06,40,11.10
2009,09,22,06,41,11.10
2009,09,22,06,42,11.10
2009,09,22,06,43,11.10
2009,09,22,06,44,11.10
2009,09,22,06,45,11.20
2009,09,22,06,46,11.20
2009,09,22,06,47,11.20
2009,09,22,06,48,11.20
2009,09,22,06,49,11.20
2009,09,22,06,50,11.20
2009,09,22,06,51,11.20
2009,09,22,06,52,11.20
2009,09,22,06,53,11.20
2009,09,22,06,54,11.20
2009,09,22,06,55,11.20
2009,09,22,06,56,11.20
2009,09,22,06,57,11.20
2009,09,22,06,58,11.20
2009,09,22,06,59,11.20
2009,09,22,07,00,11.20
2009,09,22,07,01,11.20
2009,09,22,07,02,11.20
2009,09,22,07,03,11.20
2009,09,22,07,04,11.20
2009,09,22,07,05,11.20
2009,09,22,07,06,11.20
2009,09,22,07,07,11.20
2009,09,22,07,08,11.20
2009,09,22,07,09,11.20
2009,09,22,07,10,11.20
2009,09,22,07,11,11.20
2009,09,22,07,12,11.20
2009,09,22,07,13,11.20
2009,09,22,07,14,11.20
2009,09,22,07,15,11.20
2009,09,22,07,16,11.20
2009,09,22,07,17,11.20
2009,09,22,07,18,11.20
2009,09,22,07,19,11.10
2009,09,22,07,20,11.10
2009,09,22,07,21,11.10
2009,09,22,07,22,11.10
2009,09,22,07,23,11.10
2009,09,22,07,24,11.10
2009,09,22,07,25,11.10
2009,09,22,07,26,11.10
2009,09,22,07,27,11.00
2009,09,22,07,28,10.90
2009,09,22,07,29,10.90
2009,09,22,07,30,10.90
2009,09,22,07,31,10.90
2009,09,22,07,32,10.90
2009,09,22,07,33,10.90
2009,09,22,07,34,10.90
2009,09,22,07,35,10.90
2009,09,22,07,36,10.90
2009,09,22,07,37,10.90
2009,09,22,07,38,10.90
2009,09,22,07,39,10.90
2009,09,22,07,40,10.90
2009,09,22,07,41,10.90
2009,09,22,07,42,10.90
2009,09,22,07,43,10.90
2009,09,22,07,44,10.90
2009,09,22,07,45,10.90
2009,09,22,07,46,10.90
2009,09,22,07,47,10.90
2009,09,22,07,48,10.90
2009,09,22,07,49,11.00
2009,09,22,07,50,11.10
2009,09,22,07,51,11.10
2009,09,22,07,52,11.10
2009,09,22,07,53,11.10
2009,09,22,07,54,11.10
2009,09,22,07,55,11.10
2009,09,22,07,56,11.10
2009,09,22,07,57,11.20
2009,09,22,07,58,11.20
2009,09,22,07,59,11.30
2009,09,22,08,00,11.40
2009,09,22,08,01,11.40
2009,09,22,08,02,11.50
2009,09,22,08,03,11.60
2009,09,22,08,04,11.60
2009,09,22,08,05,11.70
2009,09,22,08,06,11.80
2009,09,22,08,07,11.80
2009,09,22,08,08,11.90
2009,09,22,08,09,11.90
2009,09,22,08,10,12.00
2009,09,22,08,11,12.00
2009,09,22,08,12,12.10
2009,09,22,08,13,12.20
2009,09,22,08,14,12.30
2009,09,22,08,15,12.30
2009,09,22,08,16,12.30
2009,09,22,08,17,12.50
2009,09,22,08,18,12.50
2009,09,22,08,19,12.70
2009,09,22,08,20,12.90
2009,09,22,08,21,13.00
2009,09,22,08,22,13.10
2009,09,22,08,23,13.20
2009,09,22,08,24,13.30
2009,09,22,08,25,13.40
2009,09,22,08,26,13.50
2009,09,22,08,27,13.60
2009,09,22,08,28,13.70
2009,09,22,08,29,13.80
2009,09,22,08,30,13.90
2009,09,22,08,31,14.00
2009,09,22,08,32,14.10
2009,09,22,08,33,14.20
2009,09,22,08,34,14.20
2009,09,22,08,35,14.30
2009,09,22,08,36,14.30
2009,09,22,08,37,14.40
2009,09,22,08,38,14.50
2009,09,22,08,39,14.60
2009,09,22,08,40,14.70
2009,09,22,08,41,14.80
2009,09,22,08,42,14.80
2009,09,22,08,43,14.90
2009,09,22,08,44,15.00
2009,09,22,08,45,15.20
2009,09,22,08,46,15.30
2009,09,22,08,47,15.50
2009,09,22,08,48,15.70
2009,09,22,08,49,15.80
2009,09,22,08,50,16.00
2009,09,22,08,51,16.10
2009,09,22,08,52,16.20
2009,09,22,08,53,16.40
2009,09,22,08,54,16.50
2009,09,22,08,55,16.60
2009,09,22,08,56,16.70
2009,09,22,08,57,16.70
2009,09,22,08,58,16.70
2009,09,22,08,59,16.80
2009,09,22,09,00,16.90
2009,09,22,09,01,16.90
2009,09,22,09,02,16.90
2009,09,22,09,03,16.90
2009,09,22,09,04,17.00
2009,09,22,09,05,17.00
2009,09,22,09,06,17.00
2009,09,22,09,07,17.10
2009,09,22,09,08,17.20
2009,09,22,09,09,17.20
2009,09,22,09,10,17.20
2009,09,22,09,11,17.20
2009,09,22,09,12,17.10
2009,09,22,09,13,17.20
2009,09,22,09,14,17.20
2009,09,22,09,15,17.30
2009,09,22,09,16,17.30
2009,09,22,09,17,17.20
2009,09,22,09,18,17.10
2009,09,22,09,19,17.10
2009,09,22,09,20,17.20
2009,09,22,09,21,17.30
2009,09,22,09,22,17.40
2009,09,22,09,23,17.60
2009,09,22,09,24,17.70
2009,09,22,09,25,17.90
2009,09,22,09,26,18.00
2009,09,22,09,27,18.20
2009,09,22,09,28,18.30
2009,09,22,09,29,18.40
2009,09,22,09,30,18.50
2009,09,22,09,31,18.50
2009,09,22,09,32,18.70
2009,09,22,09,33,18.80
2009,09,22,09,34,18.90
2009,09,22,09,35,19.00
2009,09,22,09,36,19.10
2009,09,22,09,37,19.10
2009,09,22,09,38,19.10
2009,09,22,09,39,19.20
2009,09,22,09,40,19.20
2009,09,22,09,41,19.30
2009,09,22,09,42,19.40
2009,09,22,09,43,19.40
2009,09,22,09,44,19.50
2009,09,22,09,45,19.60
2009,09,22,09,46,19.80
2009,09,22,09,47,19.90
2009,09,22,09,48,20.00
2009,09,22,09,49,20.10
2009,09,22,09,50,20.20
2009,09,22,09,51,20.30
2009,09,22,09,52,20.30
2009,09,22,09,53,20.30
2009,09,22,09,54,20.20
2009,09,22,09,55,20.20
2009,09,22,09,56,20.20
2009,09,22,09,57,20.10
2009,09,22,09,58,20.10
2009,09,22,09,59,20.10
2009,09,22,10,00,20.20
2009,09,22,10,01,20.20
2009,09,22,10,02,20.30
2009,09,22,10,03,20.30
2009,09,22,10,04,20.40
2009,09,22,10,05,20.50
2009,09,22,10,06,20.60
2009,09,22,10,07,20.60
2009,09,22,10,08,20.60
2009,09,22,10,09,20.70
2009,09,22,10,10,20.70
2009,09,22,10,11,20.70
2009,09,22,10,12,20.70
2009,09,22,10,13,20.80
2009,09,22,10,14,20.80
2009,09,22,10,15,20.80
2009,09,22,10,16,20.80
2009,09,22,10,17,20.90
2009,09,22,10,18,21.00
2009,09,22,10,19,21.00
2009,09,22,10,20,21.00
2009,09,22,10,21,21.00
2009,09,22,10,22,21.00
2009,09,22,10,23,21.00
2009,09,22,10,24,21.10
2009,09,22,10,25,21.10
2009,09,22,10,26,21.10
2009,09,22,10,27,21.10
2009,09,22,10,28,21.10
2009,09,22,10,29,21.10
2009,09,22,10,30,21.10
2009,09,22,10,31,21.10
2009,09,22,10,32,21.10
2009,09,22,10,33,21.10
2009,09,22,10,34,21.10
2009,09,22,10,35,21.10
2009,09,22,10,36,21.10
2009,09,22,10,37,21.00
2009,09,22,10,38,21.00
2009,09,22,10,39,21.00
2009,09,22,10,40,20.90
2009,09,22,10,41,20.90
2009,09,22,10,42,20.80
2009,09,22,10,43,20.80
2009,09,22,10,44,20.80
2009,09,22,10,45,20.80
2009,09,22,10,46,20.80
2009,09,22,10,47,20.80
2009,09,22,10,48,20.80
2009,09,22,10,49,20.80
2009,09,22,10,50,20.90
2009,09,22,10,51,20.90
2009,09,22,10,52,21.00
2009,09,22,10,53,21.00
2009,09,22,10,54,21.00
2009,09,22,10,55,21.00
2009,09,22,10,56,21.10
2009,09,22,10,57,21.20
2009,09,22,10,58,21.20
2009,09,22,10,59,21.20
2009,09,22,11,00,21.20
2009,09,22,11,01,21.20
2009,09,22,11,02,21.20
2009,09,22,11,03,21.20
2009,09,22,11,04,21.20
2009,09,22,11,05,21.30
2009,09,22,11,06,21.30
2009,09,22,11,07,21.30
2009,09,22,11,08,21.30
2009,09,22,11,09,21.30
2009,09,22,11,10,21.30
2009,09,22,11,11,21.30
2009,09,22,11,12,21.40
2009,09,22,11,13,21.40
2009,09,22,11,14,21.60
2009,09,22,11,15,21.60
2009,09,22,11,16,21.60
2009,09,22,11,17,21.40
2009,09,22,11,18,21.40
2009,09,22,11,19,21.40
2009,09,22,11,20,21.40
2009,09,22,11,21,21.30
2009,09,22,11,22,21.30
2009,09,22,11,23,21.30
2009,09,22,11,24,21.30
2009,09,22,11,25,21.30
2009,09,22,11,26,21.30
2009,09,22,11,27,21.30
2009,09,22,11,28,21.30
2009,09,22,11,29,21.30
2009,09,22,11,30,21.40
2009,09,22,11,31,21.50
2009,09,22,11,32,21.60
2009,09,22,11,33,21.70
2009,09,22,11,34,21.90
2009,09,22,11,35,22.00
2009,09,22,11,36,22.00
2009,09,22,11,37,22.10
2009,09,22,11,38,22.20
2009,09,22,11,39,22.10
2009,09,22,11,40,22.20
2009,09,22,11,41,22.20
2009,09,22,11,42,22.10
2009,09,22,11,43,22.10
2009,09,22,11,44,22.10
2009,09,22,11,45,22.10
2009,09,22,11,46,22.20
2009,09,22,11,47,22.20
2009,09,22,11,48,22.20
2009,09,22,11,49,22.20
2009,09,22,11,50,22.20
2009,09,22,11,51,22.10
2009,09,22,11,52,22.20
2009,09,22,11,53,22.20
2009,09,22,11,54,22.10
2009,09,22,11,55,22.10
2009,09,22,11,56,22.10
2009,09,22,11,57,22.20
2009,09,22,11,58,22.20
2009,09,22,11,59,22.30
2009,09,22,12,00,22.30
2009,09,22,12,01,22.30
2009,09,22,12,02,22.30
2009,09,22,12,03,22.30
2009,09,22,12,04,22.30
2009,09,22,12,05,22.40
2009,09,22,12,06,22.40
2009,09,22,12,07,22.40
2009,09,22,12,08,22.40
2009,09,22,12,09,22.30
2009,09,22,12,10,22.30
2009,09,22,12,11,22.30
2009,09,22,12,12,22.30
2009,09,22,12,13,22.40
2009,09,22,12,14,22.40
2009,09,22,12,15,22.50
2009,09,22,12,16,22.40
2009,09,22,12,17,22.40
2009,09,22,12,18,22.40
2009,09,22,12,19,22.40
2009,09,22,12,20,22.40
2009,09,22,12,21,22.40
2009,09,22,12,22,22.40
2009,09,22,12,23,22.40
2009,09,22,12,24,22.50
2009,09,22,12,25,22.60
2009,09,22,12,26,22.70
2009,09,22,12,27,22.70
2009,09,22,12,28,22.70
2009,09,22,12,29,22.70
2009,09,22,12,30,22.70
2009,09,22,12,31,22.70
2009,09,22,12,32,22.60
2009,09,22,12,33,22.60
2009,09,22,12,34,22.60
2009,09,22,12,35,22.60
2009,09,22,12,36,22.60
2009,09,22,12,37,22.40
2009,09,22,12,38,22.40
2009,09,22,12,39,22.40
2009,09,22,12,40,22.40
2009,09,22,12,41,22.50
2009,09,22,12,42,22.50
2009,09,22,12,43,22.50
2009,09,22,12,44,22.60
2009,09,22,12,45,22.60
2009,09,22,12,46,22.70
2009,09,22,12,47,22.70
2009,09,22,12,48,22.80
2009,09,22,12,49,22.90
2009,09,22,12,50,22.90
2009,09,22,12,51,22.90
2009,09,22,12,52,22.90
2009,09,22,12,53,22.90
2009,09,22,12,54,22.80
2009,09,22,12,55,22.70
2009,09,22,12,56,22.70
2009,09,22,12,57,22.70
2009,09,22,12,58,22.70
2009,09,22,12,59,22.80
2009,09,22,13,00,22.90
2009,09,22,13,01,22.90
2009,09,22,13,02,23.10
2009,09,22,13,03,23.20
2009,09,22,13,04,23.20
2009,09,22,13,05,23.30
2009,09,22,13,06,23.30
2009,09,22,13,07,23.30
2009,09,22,13,08,23.30
2009,09,22,13,09,23.30
2009,09,22,13,10,23.30
2009,09,22,13,11,23.30
2009,09,22,13,12,23.30
2009,09,22,13,13,23.30
2009,09,22,13,14,23.40
2009,09,22,13,15,23.40
2009,09,22,13,16,23.60
2009,09,22,13,17,23.60
2009,09,22,13,18,23.70
2009,09,22,13,19,23.80
2009,09,22,13,20,23.90
2009,09,22,13,21,23.90
2009,09,22,13,22,24.10
2009,09,22,13,23,24.10
2009,09,22,13,24,24.10
2009,09,22,13,25,24.20
2009,09,22,13,26,24.10
2009,09,22,13,27,24.10
2009,09,22,13,28,24.10
2009,09,22,13,29,24.10
2009,09,22,13,30,24.10
2009,09,22,13,31,24.00
2009,09,22,13,32,24.10
2009,09,22,13,33,24.00
2009,09,22,13,34,23.80
2009,09,22,13,35,23.80
2009,09,22,13,36,23.80
2009,09,22,13,37,23.90
2009,09,22,13,38,24.00
2009,09,22,13,39,24.10
2009,09,22,13,40,24.10
2009,09,22,13,41,24.10
2009,09,22,13,42,24.10
2009,09,22,13,43,24.00
2009,09,22,13,44,24.00
2009,09,22,13,45,24.10
2009,09,22,13,46,24.10
2009,09,22,13,47,24.10
2009,09,22,13,48,24.00
2009,09,22,13,49,23.90
2009,09,22,13,50,23.90
2009,09,22,13,51,23.80
2009,09,22,13,52,23.70
2009,09,22,13,53,23.70
2009,09,22,13,54,23.70
2009,09,22,13,55,23.60
2009,09,22,13,56,23.60
2009,09,22,13,57,23.60
2009,09,22,13,58,23.60
2009,09,22,13,59,23.60
2009,09,22,14,00,23.50
2009,09,22,14,01,23.40
2009,09,22,14,02,23.40
2009,09,22,14,03,23.50
2009,09,22,14,04,23.60
2009,09,22,14,05,23.70
2009,09,22,14,06,23.70
2009,09,22,14,07,23.80
2009,09,22,14,08,23.70
2009,09,22,14,09,23.70
2009,09,22,14,10,23.70
2009,09,22,14,11,23.70
2009,09,22,14,12,23.70
2009,09,22,14,13,23.60
2009,09,22,14,14,23.60
2009,09,22,14,15,23.60
2009,09,22,14,16,23.60
2009,09,22,14,17,23.60
2009,09,22,14,18,23.40
2009,09,22,14,19,23.40
2009,09,22,14,20,23.40
2009,09,22,14,21,23.60
2009,09,22,14,22,23.60
2009,09,22,14,23,23.60
2009,09,22,14,24,23.60
2009,09,22,14,25,23.60
2009,09,22,14,26,23.60
2009,09,22,14,27,23.70
2009,09,22,14,28,23.70
2009,09,22,14,29,23.80
2009,09,22,14,30,23.90
2009,09,22,14,31,24.00
2009,09,22,14,32,24.10
2009,09,22,14,33,24.10
2009,09,22,14,34,24.20
2009,09,22,14,35,24.20
2009,09,22,14,36,24.30
2009,09,22,14,37,24.30
2009,09,22,14,38,24.40
2009,09,22,14,39,24.40
2009,09,22,14,40,24.40
2009,09,22,14,41,24.30
2009,09,22,14,42,24.30
2009,09,22,14,43,24.30
2009,09,22,14,44,24.20
2009,09,22,14,45,24.20
2009,09,22,14,46,24.20
2009,09,22,14,47,24.30
2009,09,22,14,48,24.30
2009,09,22,14,49,24.40
2009,09,22,14,50,24.40
2009,09,22,14,51,24.50
2009,09,22,14,52,24.50
2009,09,22,14,53,24.60
2009,09,22,14,54,24.60
2009,09,22,14,55,24.60
2009,09,22,14,56,24.60
2009,09,22,14,57,24.60
2009,09,22,14,58,24.60
2009,09,22,14,59,24.60
2009,09,22,15,00,24.60
2009,09,22,15,01,24.70
2009,09,22,15,02,24.70
2009,09,22,15,03,24.70
2009,09,22,15,04,24.60
2009,09,22,15,05,24.50
2009,09,22,15,06,24.50
2009,09,22,15,07,24.40
2009,09,22,15,08,24.30
2009,09,22,15,09,24.20
2009,09,22,15,10,24.10
2009,09,22,15,11,24.10
2009,09,22,15,12,24.10
2009,09,22,15,13,24.10
2009,09,22,15,14,24.10
2009,09,22,15,15,24.10
2009,09,22,15,16,24.10
2009,09,22,15,17,24.10
2009,09,22,15,18,24.10
2009,09,22,15,19,24.10
2009,09,22,15,20,24.10
2009,09,22,15,21,24.10
2009,09,22,15,22,24.10
2009,09,22,15,23,24.10
2009,09,22,15,24,24.10
2009,09,22,15,25,24.10
2009,09,22,15,26,24.00
2009,09,22,15,27,23.90
2009,09,22,15,28,23.90
2009,09,22,15,29,23.90
2009,09,22,15,30,23.90
2009,09,22,15,31,24.00
2009,09,22,15,32,23.90
2009,09,22,15,33,23.80
2009,09,22,15,34,23.70
2009,09,22,15,35,23.70
2009,09,22,15,36,23.70
2009,09,22,15,37,23.70
2009,09,22,15,38,23.60
2009,09,22,15,39,23.60
2009,09,22,15,40,23.60
2009,09,22,15,41,23.60
2009,09,22,15,42,23.40
2009,09,22,15,43,23.40
2009,09,22,15,44,23.40
2009,09,22,15,45,23.40
2009,09,22,15,46,23.40
2009,09,22,15,47,23.40
2009,09,22,15,48,23.50
2009,09,22,15,49,23.60
2009,09,22,15,50,23.60
2009,09,22,15,51,23.70
2009,09,22,15,52,23.70
2009,09,22,15,53,23.80
2009,09,22,15,54,23.80
2009,09,22,15,55,23.80
2009,09,22,15,56,23.80
2009,09,22,15,57,23.70
2009,09,22,15,58,23.70
2009,09,22,15,59,23.70
2009,09,22,16,00,23.70
2009,09,22,16,01,23.70
2009,09,22,16,02,23.60
2009,09,22,16,03,23.40
2009,09,22,16,04,23.40
2009,09,22,16,05,23.40
2009,09,22,16,06,23.40
2009,09,22,16,07,23.30
2009,09,22,16,08,23.30
2009,09,22,16,09,23.30
2009,09,22,16,10,23.30
2009,09,22,16,11,23.30
2009,09,22,16,12,23.10
2009,09,22,16,13,23.00
2009,09,22,16,14,22.90
2009,09,22,16,15,22.80
2009,09,22,16,16,22.70
2009,09,22,16,17,22.60
2009,09,22,16,18,22.40
2009,09,22,16,19,22.30
2009,09,22,16,20,22.30
2009,09,22,16,21,22.30
2009,09,22,16,22,22.40
2009,09,22,16,23,22.50
2009,09,22,16,24,22.60
2009,09,22,16,25,22.70
2009,09,22,16,26,22.80
2009,09,22,16,27,22.90
2009,09,22,16,28,23.00
2009,09,22,16,29,23.20
2009,09,22,16,30,23.30
2009,09,22,16,31,23.40
2009,09,22,16,32,23.60
2009,09,22,16,33,23.70
2009,09,22,16,34,23.90
2009,09,22,16,35,24.10
2009,09,22,16,36,24.30
2009,09,22,16,37,24.40
2009,09,22,16,38,24.50
2009,09,22,16,39,24.60
2009,09,22,16,40,24.70
2009,09,22,16,41,24.80
2009,09,22,16,42,24.90
2009,09,22,16,43,25.00
2009,09,22,16,44,25.00
2009,09,22,16,45,25.10
2009,09,22,16,46,25.10
2009,09,22,16,47,25.20
2009,09,22,16,48,25.20
2009,09,22,16,49,25.20
2009,09,22,16,50,25.20
2009,09,22,16,51,25.20
2009,09,22,16,52,25.20
2009,09,22,16,53,25.20
2009,09,22,16,54,25.20
2009,09,22,16,55,25.30
2009,09,22,16,56,25.30
2009,09,22,16,57,25.30
2009,09,22,16,58,25.30
2009,09,22,16,59,25.30
2009,09,22,17,00,25.40
2009,09,22,17,01,25.40
2009,09,22,17,02,25.40
2009,09,22,17,03,25.40
2009,09,22,17,04,25.40
2009,09,22,17,05,25.40
2009,09,22,17,06,25.40
2009,09,22,17,07,25.40
2009,09,22,17,08,25.50
2009,09,22,17,09,25.50
2009,09,22,17,10,25.50
2009,09,22,17,11,25.50
2009,09,22,17,12,25.50
2009,09,22,17,13,25.50
2009,09,22,17,14,25.50
2009,09,22,17,15,25.50
2009,09,22,17,16,25.50
2009,09,22,17,17,25.50
2009,09,22,17,18,25.40
2009,09,22,17,19,25.40